Location: Kershaw
(34.5481°N, 80.5823°W)
Time: 17:38:31
(UTC+00:00)

Transit 2A - Pass Details

Date: 08 October 2022
Orbit: 598 x 959 km, 66.7° (Epoch: 06 December)

Event Time Altitude Azimuth Distance (km) Brightness Sun altitude
Rises 11:29:23 0° 343° (NNW) 3,006 8.8 0.6°
Reaches altitude 10° 11:31:47 10° 353° (N) 2,139 8.2 1.1°
Maximum altitude 11:36:14 34° 59° (ENE) 1,187 7.7 2.0°
Drops below altitude 10° 11:41:04 10° 124° (SE) 2,343 9.9 3.0°
Sets 11:43:49 0° 133° (SE) 3,335 10.4 3.5°
